[[{"header":{"parameterUnit":"m.s-1","parameterCategory":1,"la1":30.2991,"la2":30.254,"lo1":-89.0895,"lo2":-89.0444,"dy":0.0017,"dx":0.0017,"nx":28,"ny":28,"refTime":"2024-07-05T09:00:00:Z","depth":0,"parameterNumber":2,"parameterNumberName":"U-component_of_WINDS"},"data":[0,0,0,0,0,0,0,0,0,0,0,0,0,0,0,0,0,0,0,0,0,0,0,0,0,0,0,0,0,0,0,0,0,0,0,0,0,0,0,0,0,0,0,0,0,0,0,0,0,0,0,0,0,0,0,0,0,0,3.2644,3.2646,0,3.2774,3.2775,3.2777,3.2802,3.2801,3.28,3.2799,3.2933,3.2937,3.2942,0,0,0,0,0,0,0,0,0,0,0,0,0,3.242,3.2424,3.2644,3.2646,3.2648,3.2774,3.2775,3.2777,3.2802,3.2801,3.2799,3.2798,3.2931,3.2937,3.2942,0,0,0,0,0,0,0,0,0,0,0,0,0,3.253,3.2425,3.2644,3.2675,3.2679,3.2773,3.2776,3.2778,3.2802,3.2801,3.2799,3.2798,3.293,3.2936,3.2943,3.3016,0,0,3.2964,3.2967,0,0,0,0,0,0,0,0,3.2524,3.2538,3.2669,3.2673,3.2678,3.277,3.2746,3.2858,3.2803,3.2755,3.2799,3.2797,3.288,3.2891,3.2919,3.3022,3.3028,3.2964,3.2968,3.2971,3.2973,0,0,0,0,0,0,0,3.2516,3.2533,3.2696,3.2671,3.2676,3.2683,3.2697,3.2767,3.2825,3.2759,3.2762,3.2776,3.2882,3.2912,3.2922,3.303,3.2964,3.297,3.2974,3.2977,3.32,3.3202,0,0,0,0,0,0,3.2503,3.2526,3.2691,3.2699,3.2595,3.2688,3.2704,3.2742,3.2824,3.2835,3.2778,3.2777,3.2901,3.2914,3.2927,3.3018,3.2971,3.2978,3.2982,3.3198,3.3201,3.3203,0,0,0,0,0,0,3.2498,3.2517,3.2686,3.2614,3.2636,3.2694,3.2736,3.2745,3.2775,3.2838,3.2849,3.2797,3.29,3.2917,3.2993,3.3023,3.2981,3.2987,3.3196,3.3199,3.3202,3.32,0,0,0,0,0,0,3.2491,3.2515,3.2543,3.2614,3.2639,3.275,3.2738,3.2749,3.2787,3.2787,3.2859,3.287,3.29,3.2983,3.3,3.3031,3.2992,3.3194,3.3197,3.3201,3.3197,3.3202,3.3206,0,0,0,0,0,3.2483,3.2538,3.2544,3.2564,3.2675,3.2752,3.2767,3.28,3.2789,3.2818,3.2858,3.2867,3.3017,3.2991,3.301,3.3044,3.3192,3.3196,3.32,3.3196,3.3201,3.3206,0,0,0,0,0,0,3.2469,3.2548,3.2556,3.2635,3.2687,3.2756,3.2793,3.2805,3.2862,3.286,3.29,3.2916,3.299,3.3025,3.2994,3.3119,3.3104,3.3112,3.3093,3.3099,3.3103,3.3094,3.2998,0,0,0,0,0,3.2475,3.2531,3.2596,3.266,3.2685,3.2735,3.2769,3.2791,3.2846,3.2868,3.2914,3.2968,3.3027,3.3065,3.3123,3.3203,3.3219,3.3235,3.324,3.3243,3.3249,3.3294,3.3302,3.3216,3.3216,3.3216,0,0,3.2489,3.2538,3.2571,3.2658,3.2701,3.2757,3.2753,3.2813,3.2856,3.2878,3.2952,3.2988,3.3051,3.3129,3.3166,3.316,3.3277,3.3248,3.325,3.3255,3.3299,3.3308,3.3315,3.3219,3.3219,3.3218,0,0,3.2542,3.2585,3.2642,3.2685,3.2749,3.2782,3.2796,3.2864,3.2888,3.2963,3.2981,3.3033,3.3134,3.3178,3.3213,3.3283,3.3294,3.3301,3.3323,3.3367,3.3373,3.338,3.3405,3.3413,3.3307,3.3307,3.3307,0,3.255,3.2636,3.267,3.273,3.2768,3.279,3.2849,3.2889,3.2969,3.2995,3.2987,3.3114,3.3158,3.3247,3.3264,3.3292,3.331,3.3293,3.337,3.3376,3.3383,3.3407,3.3416,3.3308,3.3308,3.3308,3.3308,0,3.2643,3.2702,3.2741,3.2817,3.286,3.2919,3.2963,3.3002,3.302,3.3053,3.313,3.3184,3.3253,3.3276,3.3294,3.3367,3.3362,3.3361,3.3347,3.339,3.3414,3.3424,3.3308,3.3308,3.3308,3.3308,0,0,3.269,3.2785,3.2799,3.2834,3.2907,3.2953,3.3013,3.3081,3.3113,3.3168,3.3219,3.3304,3.3305,3.3345,3.3369,3.3407,3.3459,3.3402,3.3404,3.341,3.3543,3.3542,3.3552,3.3466,3.3468,3.347,3.3537,0,3.2752,3.2859,3.2892,3.2982,3.3038,3.306,3.3112,3.3163,3.3196,3.3248,3.3285,3.3345,3.334,3.3365,3.3403,3.3444,3.3486,3.344,3.3515,3.3517,3.3498,3.3565,3.3564,3.3626,3.3547,3.3548,3.355,0,3.2838,3.2894,3.2989,3.3055,3.3079,3.3126,3.319,3.3239,3.3297,3.3319,3.3364,3.3385,3.3449,3.3431,3.352,3.3488,3.3521,3.3546,3.3549,3.3557,3.3536,3.3574,3.3646,3.3655,3.3564,3.3563,3.3562,0,3.2863,3.2962,3.3032,3.3061,3.314,3.3172,3.3206,3.3263,3.3301,3.3357,3.3383,3.3446,3.348,3.3529,3.3567,3.355,3.3653,3.3638,3.3672,3.3671,3.3693,3.3691,3.377,3.3714,3.3714,3.3714,3.3714,0,3.2928,3.2985,3.3044,3.3087,3.3152,3.319,3.3254,3.3289,3.3339,3.339,3.3413,3.346,3.3507,3.356,3.359,3.3659,3.3675,3.3694,3.3701,3.3692,3.3689,3.3714,3.371,3.3716,3.3716,3.3715,3.3715,0,3.2967,3.3008,3.3086,3.3154,3.3172,3.3217,3.3276,3.3319,3.3353,3.3416,3.3434,3.3487,3.3551,3.3593,3.3676,3.3696,3.3771,3.3777,3.3751,3.3754,3.3786,3.3783,3.3884,3.3899,3.3833,3.3834,3.3834,0,3.3005,3.305,3.3123,3.3158,3.3192,3.3249,3.3288,3.3328,3.3367,3.3437,3.3471,3.3537,3.3591,3.3693,3.3739,3.3802,3.381,3.3841,3.382,3.3809,3.381,3.3807,3.3812,3.3845,3.3845,3.3846,3.3846,0,3.3069,3.3088,3.3143,3.3206,3.3251,3.3303,3.3354,3.3382,3.343,3.3474,3.3539,3.3581,3.3665,3.373,3.3797,3.3833,3.3848,3.3853,3.3864,3.3854,3.3837,3.3847,3.376,3.385,3.385,3.3849,3.3849,3.3849,3.3109,3.315,3.3208,3.3268,3.3311,3.3359,3.3402,3.3441,3.3497,3.3567,3.3587,3.3656,3.3713,3.3805,3.3842,3.3896,3.3893,3.3909,3.3913,3.3917,3.3917,3.3829,3.3909,3.3909,3.3909,3.3909,3.3909,0,3.3174,3.3213,3.3268,3.3339,3.3387,3.3396,3.3454,3.3493,3.3553,3.3605,3.3658,3.3733,3.3796,3.3848,3.3913,3.3947,3.3955,3.3962,3.396,3.3968,3.3916,3.39,3.3954,3.3954,3.3954,3.3954,3.3954,3.3954,3.3214,3.3283,3.3308,3.3399,3.3437,3.3504,3.3536,3.358,3.3622,3.3704,3.3757,3.379,3.3842,3.3911,3.3969,3.3983,3.4006,3.4011,3.4026,3.3977,3.3972,3.3967,3.3952,3.4016,3.4016,3.4074,3.4074,3.4075]},{"header":{"parameterUnit":"m.s-1","parameterCategory":1,"la1":30.2991,"la2":30.254,"lo1":-89.0895,"lo2":-89.0444,"dy":0.0017,"dx":0.0017,"nx":28,"ny":28,"refTime":"2024-07-05T09:00:00:Z","depth":0,"parameterNumber":3,"parameterNumberName":"V-component_of_WINDS"},"data":[0,0,0,0,0,0,0,0,0,0,0,0,0,0,0,0,0,0,0,0,0,0,0,0,0,0,0,0,0,0,0,0,0,0,0,0,0,0,0,0,0,0,0,0,0,0,0,0,0,0,0,0,0,0,0,0,0,0,1.2578,1.2578,0,1.262,1.262,1.2621,1.2613,1.2612,1.2611,1.2611,1.2653,1.2655,1.2656,0,0,0,0,0,0,0,0,0,0,0,0,0,1.2489,1.249,1.2578,1.2578,1.2579,1.262,1.262,1.2621,1.2613,1.2612,1.2611,1.261,1.2652,1.2654,1.2657,0,0,0,0,0,0,0,0,0,0,0,0,0,1.2529,1.2491,1.2578,1.258,1.258,1.262,1.262,1.2621,1.2613,1.2612,1.2611,1.261,1.2652,1.2654,1.2657,1.2696,0,0,1.2665,1.2666,0,0,0,0,0,0,0,0,1.2526,1.2532,1.2579,1.258,1.258,1.261,1.2604,1.2646,1.2613,1.2601,1.261,1.2609,1.2639,1.2643,1.2653,1.2698,1.27,1.2665,1.2667,1.2668,1.2669,0,0,0,0,0,0,0,1.2524,1.253,1.2594,1.258,1.2581,1.2578,1.2582,1.2612,1.2626,1.2602,1.2601,1.2606,1.264,1.2651,1.2654,1.2701,1.2665,1.2668,1.267,1.2671,1.2778,1.2779,0,0,0,0,0,0,1.252,1.2528,1.2593,1.2596,1.255,1.258,1.2585,1.2602,1.2625,1.2628,1.2607,1.2606,1.2647,1.2651,1.2656,1.2703,1.2668,1.2671,1.2672,1.2777,1.2779,1.278,0,0,0,0,0,0,1.2518,1.2526,1.2591,1.2562,1.257,1.2583,1.2601,1.2603,1.2614,1.263,1.2632,1.2616,1.2646,1.2652,1.2686,1.2704,1.2672,1.2675,1.2776,1.2778,1.2779,1.2797,0,0,0,0,0,0,1.2516,1.2526,1.2541,1.2562,1.2571,1.2622,1.2603,1.2605,1.2619,1.2618,1.2639,1.2641,1.2646,1.2682,1.2689,1.2707,1.2677,1.2774,1.2777,1.2779,1.2795,1.2799,1.2803,0,0,0,0,0,1.2513,1.2545,1.2542,1.255,1.2591,1.2623,1.2628,1.2632,1.2621,1.2636,1.2646,1.2641,1.2701,1.2686,1.2693,1.2713,1.2773,1.2776,1.2779,1.2793,1.2798,1.2803,0,0,0,0,0,0,1.2526,1.2548,1.2545,1.2585,1.2602,1.2621,1.2641,1.2638,1.2659,1.2656,1.2661,1.2666,1.27,1.271,1.2692,1.2751,1.2735,1.274,1.2744,1.2749,1.2753,1.275,1.2679,0,0,0,0,0,1.2534,1.2558,1.2575,1.2609,1.2617,1.2628,1.2642,1.2643,1.2661,1.2668,1.268,1.2698,1.272,1.2735,1.2757,1.2796,1.28,1.2813,1.2817,1.282,1.2824,1.2844,1.285,1.2789,1.2789,1.2789,0,0,1.255,1.2565,1.258,1.2612,1.2625,1.2649,1.2634,1.266,1.2678,1.2672,1.2705,1.2714,1.2733,1.277,1.2787,1.2779,1.2841,1.2824,1.2826,1.2828,1.2847,1.2853,1.2858,1.2791,1.279,1.279,0,0,1.2591,1.2605,1.2634,1.2648,1.2668,1.2674,1.2681,1.2701,1.2706,1.2739,1.2735,1.2756,1.2795,1.2808,1.282,1.2865,1.286,1.2872,1.2893,1.2912,1.2917,1.2921,1.2936,1.2941,1.2875,1.2875,1.2875,0,1.2609,1.2646,1.2649,1.2676,1.2689,1.2685,1.2713,1.2726,1.2753,1.2762,1.2753,1.2801,1.2814,1.2852,1.2863,1.2873,1.288,1.2869,1.2916,1.292,1.2924,1.2938,1.2944,1.2876,1.2876,1.2876,1.2876,0,1.2665,1.269,1.2711,1.2736,1.2752,1.278,1.2787,1.2802,1.2802,1.2809,1.2842,1.2857,1.2881,1.289,1.289,1.2928,1.2923,1.2915,1.2899,1.2931,1.2945,1.295,1.2878,1.2878,1.2877,1.2877,0,0,1.2718,1.2743,1.2751,1.2762,1.2783,1.2802,1.2828,1.2852,1.2864,1.2882,1.2904,1.2936,1.2929,1.2942,1.2944,1.2961,1.2994,1.2951,1.2951,1.2958,1.3035,1.3041,1.3047,1.2991,1.2992,1.2993,1.3033,0,1.276,1.2808,1.2811,1.2853,1.2876,1.2871,1.2894,1.2909,1.2915,1.2935,1.2942,1.2965,1.2953,1.2961,1.2978,1.2986,1.3009,1.2983,1.301,1.3011,1.3005,1.3054,1.3061,1.3098,1.3039,1.3039,1.304,0,1.2817,1.2836,1.2881,1.2897,1.2907,1.2927,1.2948,1.2967,1.2983,1.2987,1.3001,1.3,1.3026,1.3009,1.3044,1.3026,1.3037,1.3043,1.3044,1.3047,1.3028,1.3058,1.311,1.3116,1.3049,1.3048,1.3047,0,1.285,1.2887,1.2917,1.2927,1.2947,1.2961,1.297,1.2986,1.2999,1.3017,1.3025,1.3046,1.3057,1.3073,1.3077,1.3064,1.3111,1.3095,1.3114,1.3114,1.3125,1.3124,1.318,1.3132,1.3132,1.3132,1.3132,0,1.2897,1.2924,1.2932,1.2951,1.2981,1.2984,1.3013,1.3021,1.3034,1.3054,1.3051,1.3069,1.3074,1.3093,1.3096,1.3124,1.3129,1.3132,1.3132,1.3132,1.3132,1.3139,1.3137,1.3134,1.3133,1.3133,1.3133,0,1.2939,1.2945,1.2979,1.2995,1.2999,1.302,1.3034,1.3051,1.3057,1.3082,1.3088,1.3097,1.3119,1.3124,1.3151,1.3153,1.3185,1.3184,1.318,1.318,1.3199,1.3197,1.3261,1.3269,1.3217,1.3218,1.3218,0,1.2969,1.2989,1.3007,1.302,1.303,1.3051,1.3064,1.3067,1.3081,1.31,1.3115,1.3137,1.3154,1.3189,1.3198,1.3218,1.3216,1.3237,1.3219,1.3217,1.3215,1.3214,1.3215,1.324,1.3241,1.3241,1.3242,0,1.302,1.3022,1.3042,1.3062,1.3078,1.3094,1.3109,1.3119,1.3124,1.314,1.3162,1.3176,1.3202,1.3223,1.3243,1.3251,1.3247,1.3247,1.3253,1.3253,1.3249,1.3251,1.3189,1.3246,1.3246,1.3245,1.3245,1.3245,1.3057,1.3074,1.3089,1.311,1.3122,1.3136,1.3153,1.316,1.3179,1.3201,1.3201,1.3225,1.3239,1.3265,1.3275,1.3293,1.3286,1.3294,1.3296,1.3298,1.3299,1.3247,1.3296,1.3296,1.3296,1.3296,1.3296,0,1.3108,1.3117,1.3136,1.3157,1.3173,1.3168,1.3184,1.3198,1.3219,1.3233,1.325,1.3275,1.3294,1.3304,1.3323,1.3336,1.3335,1.3341,1.334,1.3342,1.3305,1.3298,1.3342,1.3342,1.3342,1.3342,1.3342,1.3342,1.3136,1.3165,1.3168,1.3202,1.3211,1.3235,1.3244,1.3256,1.3267,1.3295,1.3311,1.3317,1.3329,1.3349,1.3367,1.3369,1.3376,1.3383,1.3384,1.3349,1.3345,1.334,1.3334,1.3385,1.3385,1.342,1.342,1.342]}]]